Bigfork, MN

8:52 AM CST on February 25, 2017 (GMT -0600)
Bigfork Municipal

Weather History for KFOZ - December, 2013

Change the Weather History Date:

Tuesday, December 31, 2013

  Actual Average (KGPZ) Record (KGPZ)
Temperature  
Mean Temperature -20 °F -  
Max Temperature -9 °F 15 °F 39 °F (1943)
Min Temperature -32 °F -2 °F -45 °F (1946)
Degree Days  
Heating Degree Days 86    
Moisture  
Dew Point -30 °F    
Average Humidity 68    
Maximum Humidity 77    
Minimum Humidity 59    
Precipitation  
Precipitation 0.00 in - - ()
Sea Level Pressure  
Sea Level Pressure 30.22 in    
Wind  
Wind Speed 1 mph (NNW)    
Max Wind Speed 6 mph    
Max Gust Speed -    
Visibility 10 miles    
Events Snow    
Averages and records for this station are not official NWS values.
T = Trace of Precipitation, MM = Missing Value Source: NWS Daily Summary

Daily Weather History Graph

Daily Weather History Graph

Search for Another Location

Airport or City:

Trip Planner

Search our weather history database for the weather conditions in past years. The results will help you decide how hot, cold, wet, or windy it might be!

Date:

Astronomy

Dec. 31, 2013 Rise Set
Actual Time 8:03 AM CST 4:32 PM CST
Civil Twilight 7:27 AM CST 5:08 PM CST
Nautical Twilight 6:48 AM CST 5:47 PM CST
Astronomical Twilight 6:10 AM CST 6:25 PM CST
Moon 6:53 AM CST (12/31) 4:12 PM CST (12/31)
Length of Visible Light 9h 40m
Length of Day
8h 28m
Waning Crescent, 1% of the Moon is Illuminated
Dec 31
Waning Crescent
Jan 1
New
Jan 7
First Quarter
Jan 15
Full
Jan 23
Last Quarter

Hourly Weather History & Observations

Time (CST) Temp. Windchill Dew Point Humidity Pressure Visibility Wind Dir Wind Speed Gust Speed Precip Events Conditions
12:13 AM -32.8 °F - -38.2 °F 75% 30.08 in 10.0 mi Calm Calm - N/A   Clear
12:33 AM -32.8 °F - -40.0 °F 68% 30.08 in 10.0 mi Calm Calm - N/A   Clear
12:53 AM -31.0 °F - -38.2 °F 68% 30.07 in 10.0 mi Calm Calm - N/A   Clear
1:13 AM -31.0 °F - -38.2 °F 68% 30.07 in 10.0 mi Calm Calm - N/A   Clear
1:33 AM -27.4 °F - -34.6 °F 69% 30.07 in 10.0 mi Calm Calm - N/A   Clear
1:53 AM -23.8 °F - -31.0 °F 69% 30.08 in 10.0 mi Calm Calm - N/A   Mostly Cloudy
2:13 AM -25.6 °F - -32.8 °F 69% 30.08 in 10.0 mi Calm Calm - N/A   Scattered Clouds
2:33 AM -27.4 °F -39.2 °F -34.6 °F 69% 30.08 in 10.0 mi West 3.5 mph - N/A   Clear
2:53 AM -23.8 °F - -29.2 °F 76% 30.09 in 10.0 mi Calm Calm - N/A   Clear
3:13 AM -25.6 °F - -31.0 °F 76% 30.09 in 10.0 mi Calm Calm - N/A   Clear
3:33 AM -25.6 °F - -32.8 °F 69% 30.09 in 10.0 mi Calm Calm - N/A   Clear
3:53 AM -27.4 °F - -34.6 °F 69% 30.09 in 10.0 mi Calm Calm - N/A   Clear
4:13 AM -27.4 °F - -34.6 °F 69% 30.09 in 10.0 mi Calm Calm - N/A   Clear
4:33 AM -29.2 °F - -36.4 °F 68% 30.09 in 7.0 mi Calm Calm - N/A Snow Light Snow
4:53 AM -29.2 °F - -36.4 °F 68% 30.10 in 7.0 mi Calm Calm - N/A Snow Light Snow
5:13 AM -29.2 °F - -36.4 °F 68% 30.10 in 10.0 mi Calm Calm - N/A   Clear
5:33 AM -25.6 °F - -32.8 °F 69% 30.11 in 10.0 mi Calm Calm - N/A   Clear
5:53 AM -29.2 °F - -36.4 °F 68% 30.11 in 10.0 mi Calm Calm - N/A   Clear
6:13 AM -23.8 °F - -31.0 °F 69% 30.11 in 10.0 mi Calm Calm - N/A   Clear
6:33 AM -23.8 °F - -31.0 °F 69% 30.12 in 10.0 mi Calm Calm - N/A   Clear
6:53 AM -25.6 °F - -32.8 °F 69% 30.13 in 10.0 mi Calm Calm - N/A   Clear
7:13 AM -25.6 °F - -32.8 °F 69% 30.13 in 10.0 mi Calm Calm - N/A   Clear
7:33 AM -25.6 °F - -32.8 °F 69% 30.15 in 10.0 mi Calm Calm - N/A   Clear
7:53 AM -27.4 °F - -34.6 °F 69% 30.15 in 10.0 mi Calm Calm - N/A   Clear
8:13 AM -29.2 °F - -36.4 °F 68% 30.16 in 10.0 mi Calm Calm - N/A   Clear
8:33 AM -29.2 °F - -36.4 °F 68% 30.18 in 10.0 mi Calm Calm - N/A   Clear
8:53 AM -27.4 °F - -34.6 °F 69% 30.19 in 10.0 mi Calm Calm - N/A   Clear
9:13 AM -27.4 °F - -34.6 °F 69% 30.21 in 10.0 mi Calm Calm - N/A   Clear
9:33 AM -22.0 °F - -29.2 °F 69% 30.21 in 10.0 mi Calm Calm - N/A   Clear
9:53 AM -20.2 °F -30.9 °F -27.4 °F 69% 30.22 in 10.0 mi NNW 3.5 mph - N/A   Clear
10:13 AM -18.4 °F - -25.6 °F 70% 30.23 in 10.0 mi Calm Calm - N/A   Clear
10:33 AM -18.4 °F -31.4 °F -23.8 °F 76% 30.24 in 10.0 mi WNW 4.6 mph - N/A   Clear
10:53 AM -16.6 °F - -23.8 °F 70% 30.24 in 10.0 mi Calm Calm - N/A   Clear
11:13 AM -16.6 °F -29.3 °F -22.0 °F 76% 30.24 in 10.0 mi NW 4.6 mph - N/A   Clear
11:33 AM -14.8 °F -24.8 °F -20.2 °F 77% 30.24 in 10.0 mi NNW 3.5 mph - N/A   Clear
11:53 AM -14.8 °F -24.8 °F -20.2 °F 77% 30.23 in 10.0 mi NNW 3.5 mph - N/A   Clear
12:13 PM -13.0 °F -22.7 °F -20.2 °F 70% 30.24 in 10.0 mi North 3.5 mph - N/A   Clear
12:33 PM -13.0 °F -25.1 °F -20.2 °F 70% 30.24 in 10.0 mi North 4.6 mph - N/A   Clear
12:53 PM -11.2 °F - -20.2 °F 64% 30.24 in 10.0 mi Calm Calm - N/A   Clear
1:13 PM -11.2 °F -24.8 °F -20.2 °F 64% 30.24 in 10.0 mi NW 5.8 mph - N/A   Clear
1:33 PM -11.2 °F - -20.2 °F 64% 30.24 in 10.0 mi Calm Calm - N/A   Clear
1:53 PM -9.4 °F -18.6 °F -20.2 °F 59% 30.25 in 10.0 mi NNW 3.5 mph - N/A   Clear
2:13 PM -9.4 °F -18.6 °F -20.2 °F 59% 30.25 in 10.0 mi North 3.5 mph - N/A   Clear
2:33 PM -9.4 °F -20.9 °F -20.2 °F 59% 30.25 in 10.0 mi North 4.6 mph - N/A   Clear
2:53 PM -9.4 °F -18.6 °F -20.2 °F 59% 30.25 in 10.0 mi NNW 3.5 mph - N/A   Clear
3:13 PM -9.4 °F -18.6 °F -20.2 °F 59% 30.26 in 10.0 mi NNW 3.5 mph - N/A   Clear
3:33 PM -11.2 °F -23.0 °F -22.0 °F 59% 30.27 in 10.0 mi NNW 4.6 mph - N/A   Clear
3:53 PM -11.2 °F -20.6 °F -22.0 °F 59% 30.27 in 10.0 mi North 3.5 mph - N/A   Clear
4:13 PM -11.2 °F - -22.0 °F 59% 30.27 in 10.0 mi Calm Calm - N/A   Clear
4:33 PM -14.8 °F - -23.8 °F 64% 30.28 in 10.0 mi Calm Calm - N/A   Clear
4:53 PM -14.8 °F - -23.8 °F 64% 30.29 in 10.0 mi Calm Calm - N/A   Clear
5:13 PM -18.4 °F - -25.6 °F 70% 30.29 in 10.0 mi Calm Calm - N/A   Clear
5:33 PM -18.4 °F - -25.6 °F 70% 30.30 in 10.0 mi Calm Calm - N/A   Clear
5:53 PM -20.2 °F - -27.4 °F 69% 30.31 in 10.0 mi Calm Calm - N/A   Clear
6:13 PM -18.4 °F - -25.6 °F 70% 30.31 in 10.0 mi Calm Calm - N/A   Clear
6:33 PM -18.4 °F - -25.6 °F 70% 30.32 in 10.0 mi Calm Calm - N/A   Clear
6:53 PM -22.0 °F - -29.2 °F 69% 30.32 in 10.0 mi Calm Calm - N/A   Clear
7:13 PM -25.6 °F - -32.8 °F 69% 30.33 in 10.0 mi Calm Calm - N/A   Clear
7:33 PM -25.6 °F - -32.8 °F 69% 30.34 in 10.0 mi Calm Calm - N/A   Clear
7:53 PM -25.6 °F - -34.6 °F 63% 30.34 in 10.0 mi Calm Calm - N/A   Clear
8:13 PM -27.4 °F - -34.6 °F 69% 30.34 in 10.0 mi Calm Calm - N/A   Clear
8:33 PM -27.4 °F - -34.6 °F 69% 30.33 in 10.0 mi Calm Calm - N/A   Clear
8:53 PM -29.2 °F - -36.4 °F 68% 30.35 in 10.0 mi Calm Calm - N/A   Clear
9:13 PM -29.2 °F - -36.4 °F 68% 30.35 in 10.0 mi Calm Calm - N/A   Clear
9:33 PM -29.2 °F - -36.4 °F 68% 30.36 in 10.0 mi Calm Calm - N/A   Clear
9:53 PM -31.0 °F - -38.2 °F 68% 30.36 in 10.0 mi Calm Calm - N/A   Clear
10:13 PM -29.2 °F - -38.2 °F 62% 30.36 in 10.0 mi Calm Calm - N/A   Clear
10:33 PM -29.2 °F - -36.4 °F 68% 30.36 in 10.0 mi Calm Calm - N/A   Clear
10:53 PM -29.2 °F - -36.4 °F 68% 30.36 in 10.0 mi Calm Calm - N/A   Clear
11:13 PM -29.2 °F - -36.4 °F 68% 30.37 in 10.0 mi Calm Calm - N/A   Clear
11:33 PM -29.2 °F - -36.4 °F 68% 30.37 in 10.0 mi Calm Calm - N/A   Clear
11:53 PM -27.4 °F - -34.6 °F 69% 30.37 in 10.0 mi Calm Calm - N/A   Clear